Location: Unspecified
(0.0000°N, 0.0000°E)
Time: 19:24:17
(UTC+00:00)

GGSE 1 - Pass Details

Date: 12 March 2026
Orbit: 894 x 910 km, 69.9° (Epoch: 18 April)

Event Time Altitude Azimuth Distance (km) Brightness Sun altitude
Exits shadow 04:15:30 73° 192° (SSW) 939 7.8 -28.5°
Drops below altitude 10° 04:20:54 10° 166° (SSE) 2,578 10.4 -27.2°
Sets 04:23:24 0° 165° (SSE) 3,524 11.2 -26.6°
